DW7857 Weather Reports


Display with metric or nautical units.
time (UTC)temp
F
wind
direction
speed
MPH
gust
MPH
rain 1hr
in
rain 24hr
in
rain mn
in
humidity
%
barometer
mb
20260504040903 52 184 1.0 2.0 0.00 0.00 0.00 95 1015.5
20260504040003 52 167 1.0 1.0 0.00 0.00 0.00 95 1015.4
20260504035403 52 204 1.0 2.0 0.00 0.00 0.00 95 1015.5
20260504034713 52 207 1.0 2.0 0.00 0.00 0.00 95 1015.3
20260504033812 52 202 1.0 2.0 0.00 0.00 0.00 95 1015.5
20260504032703 53 197 1.0 2.0 0.00 0.00 0.00 95 1015.5
20260504031803 53 198 1.0 2.0 0.00 0.00 0.00 95 1015.6
20260504030903 53 174 1.0 2.0 0.00 0.00 0.00 95 1015.6
20260504030003 53 176 1.0 2.0 0.00 0.00 0.00 95 1015.6
20260504025403 53 180 0.0 1.0 0.00 0.00 0.00 95 1015.6
20260504024503 53 0 0.0 0.0 0.00 0.00 0.00 95 1015.5
20260504023603 53 180 1.0 2.0 0.00 0.00 0.00 95 1015.5
20260504022703 53 134 0.0 2.0 0.00 0.00 0.00 94 1015.7
20260504021803 52 159 1.0 2.0 0.00 0.00 0.00 94 1015.3
20260504020903 52 143 1.0 2.0 0.00 0.00 0.00 94 1015.2
20260504020003 52 169 1.0 2.0 0.00 0.00 0.00 94 1015.5
20260504015403 52 180 0.0 2.0 0.00 0.00 0.00 94 1015.6
20260504014503 52 93 0.0 1.0 0.00 0.00 0.00 94 1015.4
20260504013814 52 116 0.0 1.0 0.00 0.00 0.00 94 1015.6
20260504012913 52 176 1.0 2.0 0.00 0.01 0.00 94 1015.4
20260504011803 52 195 1.0 2.0 0.00 0.01 0.00 94 1015.5
20260504010903 52 159 1.0 2.0 0.00 0.01 0.00 94 1015.3
20260504010004 52 199 2.0 3.0 0.00 0.01 0.00 94 1015.6
20260504005403 52 211 2.0 3.0 0.00 0.01 0.00 94 1015.5
20260504004503 52 188 2.0 3.0 0.00 0.01 0.00 94 1015.4
20260504003603 52 200 2.0 3.0 0.00 0.01 0.00 94 1015.2
20260504002703 52 204 2.0 3.0 0.00 0.02 0.00 94 1015.4
20260504001803 52 201 3.0 4.0 0.00 0.02 0.00 94 1015.4
20260504000903 52 205 2.0 4.0 0.00 0.02 0.00 93 1015.5
20260504000213 52 205 2.0 2.0 0.00 0.02 0.00 93 1015.3
20260503235403 53 208 2.0 2.0 0.00 0.07 0.00 93 1015.4
20260503234503 53 195 2.0 3.0 0.00 0.07 0.00 93 1015.3
20260503233603 53 195 2.0 2.0 0.00 0.07 0.00 93 1015.4
20260503232914 53 171 1.0 2.0 0.00 0.09 0.00 92 1015.3
20260503231803 53 186 1.0 2.0 0.00 0.09 0.00 92 1015.4
20260503230903 53 116 1.0 2.0 0.00 0.09 0.00 92 1015.5
20260503230003 53 144 2.0 4.0 0.00 0.09 0.00 92 1015.6
20260503225403 53 190 3.0 4.0 0.00 0.09 0.09 92 1015.4
20260503224503 53 115 2.0 4.0 0.00 0.09 0.09 92 1014.9
20260503223603 53 201 3.0 5.0 0.00 0.48 0.09 92 1015.2
20260503222703 53 192 2.0 5.0 0.00 0.48 0.09 92 1015.2
20260503221803 52 202 2.0 3.0 0.00 0.48 0.09 92 1015.3
20260503220903 52 208 1.0 2.0 0.00 0.48 0.09 91 1015.0
20260503220003 52 193 1.0 2.0 0.00 0.48 0.09 91 1015.0
20260503215403 52 225 0.0 2.0 0.00 0.48 0.09 91 1015.1
20260503214503 52 184 1.0 2.0 0.00 0.48 0.09 91 1014.8
20260503213814 52 219 1.0 2.0 0.00 0.48 0.09 90 1014.9
20260503212703 52 285 1.0 2.0 0.00 0.48 0.09 90 1015.0
20260503211803 52 212 1.0 2.0 0.00 0.48 0.09 90 1015.0
20260503210903 52 190 2.0 4.0 0.00 0.48 0.09 90 1014.7
20260503210003 53 204 2.0 4.0 0.00 0.48 0.09 90 1014.7
20260503205403 53 194 3.0 4.0 0.00 0.48 0.09 90 1014.6
20260503204503 53 216 3.0 4.0 0.00 0.48 0.09 90 1014.5
20260503203603 53 195 2.0 4.0 0.00 0.48 0.09 90 1014.6
20260503202703 53 191 3.0 4.0 0.00 0.48 0.09 90 1014.5
20260503201803 53 196 3.0 4.0 0.00 0.48 0.09 90 1014.3
20260503200903 53 216 3.0 4.0 0.00 0.48 0.09 90 1014.2
20260503200003 53 195 4.0 4.0 0.00 0.48 0.09 90 1014.1
20260503195403 53 190 3.0 4.0 0.00 0.48 0.09 90 1014.1
20260503194503 53 195 3.0 5.0 0.00 0.48 0.09 89 1013.8
20260503193813 53 190 4.0 5.0 0.00 0.48 0.09 88 1013.9
20260503192703 54 187 4.0 4.0 0.00 0.48 0.09 87 1013.8
20260503191803 54 204 3.0 5.0 0.00 0.48 0.09 85 1013.8
20260503190903 55 212 3.0 4.0 0.00 0.48 0.09 81 1013.6
20260503190003 56 182 3.0 4.0 0.00 0.48 0.09 80 1013.7
20260503185403 56 179 3.0 4.0 0.00 0.48 0.09 79 1013.5
20260503184503 57 239 3.0 4.0 0.00 0.48 0.09 79 1013.4
20260503183603 57 214 3.0 4.0 0.00 0.48 0.09 79 1013.5
20260503182704 57 175 3.0 4.0 0.00 0.48 0.09 78 1013.5
20260503181803 57 180 4.0 4.0 0.00 0.48 0.09 78 1013.3
20260503180903 58 224 3.0 5.0 0.00 0.48 0.09 78 1013.1
20260503180215 58 214 3.0 4.0 0.00 0.48 0.09 77 1013.3
20260503175403 58 124 3.0 5.0 0.00 0.48 0.09 79 1013.0
20260503174503 57 197 3.0 5.0 0.00 0.48 0.09 80 1013.3
20260503173813 56 208 4.0 8.0 0.00 0.50 0.09 80 1013.1
20260503172703 56 197 4.0 5.0 0.00 0.50 0.09 80 1012.9
20260503171803 56 203 3.0 4.0 0.00 0.50 0.09 80 1013.1
20260503170903 56 275 3.0 5.0 0.00 0.50 0.09 80 1013.3
20260503160214 56 195 5.0 8.0 0.00 0.56 0.09 82 1013.1
20260503150903 58 207 5.0 8.0 0.00 0.60 0.09 78 1013.1
20260503130903 59 249 5.0 7.0 0.00 0.85 0.09 74 1013.4
20260503090213 58 83 2.0 3.0 0.00 0.87 0.09 94 1013.6
20260503081113 53 109 2.0 4.0 0.00 0.87 0.09 100 1013.6
20260503072703 53 42 2.0 3.0 0.00 0.87 0.09 100 1013.5
20260503071803 53 61 2.0 3.0 0.00 0.87 0.09 100 1013.3